Time,TemperatureF,DewpointF,PressureIn,WindDirection,WindDirectionDegrees,WindSpeedMPH,WindSpeedGustMPH,Humidity,HourlyPrecipIn,Conditions,Clouds,dailyrainin,SolarRadiationWatts/m^2,SoftwareType,DateUTC
2015-01-29 00:00:00,31.7,23.4,30.25,ESE,103,6.0,6.0,71,0.00,,FEW070,0.00,0.00,VWS V15.00,2015-01-29 05:00:00,
2015-01-29 00:05:00,31.7,23.4,30.25,ESE,111,3.0,6.0,71,0.00,,FEW070,0.00,0.00,VWS V15.00,2015-01-29 05:05:00,
2015-01-29 00:10:00,31.6,23.3,30.25,SE,128,4.5,6.0,71,0.00,,FEW070,0.00,0.00,VWS V15.00,2015-01-29 05:10:00,
2015-01-29 00:15:00,31.6,23.3,30.25,SSE,165,7.5,7.5,71,0.00,,FEW070,0.00,0.00,VWS V15.00,2015-01-29 05:15:00,
2015-01-29 00:20:00,31.6,23.3,30.25,East,95,7.5,7.5,71,0.00,,FEW070,0.00,0.00,VWS V15.00,2015-01-29 05:20:00,
2015-01-29 00:25:00,31.6,23.3,30.25,ESE,119,1.5,6.0,71,0.00,,FEW070,0.00,0.00,VWS V15.00,2015-01-29 05:25:00,
2015-01-29 00:30:00,31.5,23.2,30.25,SE,126,0.0,6.0,71,0.00,,FEW070,0.00,0.00,VWS V15.00,2015-01-29 05:30:00,
2015-01-29 00:35:00,31.5,23.2,30.25,SE,130,3.0,6.0,71,0.00,,FEW070,0.00,0.00,VWS V15.00,2015-01-29 05:35:00,
2015-01-29 00:41:00,31.4,23.4,30.25,ESE,121,3.0,6.0,72,0.00,,FEW070,0.00,0.00,VWS V15.00,2015-01-29 05:41:00,
2015-01-29 00:46:00,31.4,23.4,30.25,SE,131,7.5,7.5,72,0.00,,FEW070,0.00,0.00,VWS V15.00,2015-01-29 05:46:00,
2015-01-29 00:51:00,31.4,23.4,30.25,SE,132,3.0,6.0,72,0.00,,FEW070,0.00,0.00,VWS V15.00,2015-01-29 05:51:00,
2015-01-29 00:56:00,31.4,23.4,30.24,SE,140,7.5,7.5,72,0.00,,FEW070,0.00,0.00,VWS V15.00,2015-01-29 05:56:00,
2015-01-29 01:01:00,31.5,23.5,30.24,SE,127,6.0,6.0,72,0.00,,FEW070,0.00,0.00,VWS V15.00,2015-01-29 06:01:00,
2015-01-29 01:06:00,31.6,23.6,30.23,ENE,65,7.5,7.5,72,0.00,,FEW070,0.00,0.00,VWS V15.00,2015-01-29 06:06:00,
2015-01-29 01:11:00,31.8,23.8,30.23,SE,133,10.5,10.5,72,0.00,,FEW070,0.00,0.00,VWS V15.00,2015-01-29 06:11:00,
2015-01-29 01:16:00,31.9,23.9,30.22,SE,142,4.5,6.0,72,0.00,,FEW070,0.00,0.00,VWS V15.00,2015-01-29 06:16:00,
2015-01-29 01:21:00,31.9,23.9,30.22,ESE,119,13.5,13.5,72,0.00,,FEW070,0.00,0.00,VWS V15.00,2015-01-29 06:21:00,
2015-01-29 01:26:00,32.0,24.0,30.21,ESE,108,1.5,6.0,72,0.00,,FEW070,0.00,0.00,VWS V15.00,2015-01-29 06:26:00,
2015-01-29 01:31:00,32.0,24.0,30.21,SE,128,9.0,9.0,72,0.00,,FEW070,0.00,0.00,VWS V15.00,2015-01-29 06:31:00,
2015-01-29 01:36:00,32.1,24.1,30.21,East,88,9.0,9.0,72,0.00,,FEW070,0.00,0.00,VWS V15.00,2015-01-29 06:36:00,
2015-01-29 01:41:00,32.1,24.1,30.21,SE,132,3.0,6.0,72,0.00,,FEW070,0.00,0.00,VWS V15.00,2015-01-29 06:41:00,
2015-01-29 01:46:00,32.2,24.2,30.20,SE,128,6.0,6.0,72,0.00,,FEW070,0.00,0.00,VWS V15.00,2015-01-29 06:46:00,
2015-01-29 01:51:00,32.3,24.3,30.21,ESE,121,1.5,6.0,72,0.00,,FEW070,0.00,0.00,VWS V15.00,2015-01-29 06:51:00,
2015-01-29 01:57:00,32.5,24.2,30.20,SE,128,7.5,7.5,71,0.00,,FEW070,0.00,0.00,VWS V15.00,2015-01-29 06:57:00,
2015-01-29 02:02:00,32.6,24.2,30.20,SE,124,3.0,6.0,71,0.00,,FEW070,0.00,0.00,VWS V15.00,2015-01-29 07:02:00,
2015-01-29 02:07:00,32.7,24.4,30.20,SE,128,3.0,6.0,71,0.00,,FEW070,0.00,0.00,VWS V15.00,2015-01-29 07:07:00,
2015-01-29 02:12:00,32.9,24.5,30.20,SSE,149,3.0,6.0,71,0.00,,FEW070,0.00,0.00,VWS V15.00,2015-01-29 07:12:00,
2015-01-29 02:17:00,33.2,24.5,30.19,East,101,7.5,7.5,70,0.00,,FEW070,0.00,0.00,VWS V15.00,2015-01-29 07:17:00,
2015-01-29 02:22:00,33.4,24.7,30.18,SE,132,9.0,9.0,70,0.00,,FEW070,0.00,0.00,VWS V15.00,2015-01-29 07:22:00,
2015-01-29 02:27:00,33.7,24.6,30.19,SSE,163,13.5,13.5,69,0.00,,FEW070,0.00,0.00,VWS V15.00,2015-01-29 07:27:00,
2015-01-29 02:32:00,33.9,24.5,30.19,SE,132,7.5,7.5,68,0.00,,FEW070,0.00,0.00,VWS V15.00,2015-01-29 07:32:00,
2015-01-29 02:38:00,34.2,24.8,30.19,South,169,3.0,6.0,68,0.00,,FEW070,0.00,0.00,VWS V15.00,2015-01-29 07:38:00,
2015-01-29 02:43:00,34.5,24.7,30.19,ESE,106,13.5,13.5,67,0.00,,FEW070,0.00,0.00,VWS V15.00,2015-01-29 07:43:00,
2015-01-29 02:48:00,34.8,24.6,30.18,SE,146,4.5,6.0,66,0.00,,FEW070,0.00,0.00,VWS V15.00,2015-01-29 07:48:00,
2015-01-29 02:53:00,35.0,24.8,30.18,SSE,165,3.0,6.0,66,0.00,,FEW070,0.00,0.00,VWS V15.00,2015-01-29 07:53:00,
2015-01-29 02:58:00,35.0,24.4,30.18,SSE,147,7.5,7.5,65,0.00,,FEW070,0.00,0.00,VWS V15.00,2015-01-29 07:58:00,
2015-01-29 03:03:00,35.3,24.7,30.17,SSE,157,18.0,18.0,65,0.00,,FEW070,0.00,0.00,VWS V15.00,2015-01-29 08:03:00,
2015-01-29 03:08:00,35.3,24.4,30.16,ESE,107,4.5,6.0,64,0.00,,FEW070,0.00,0.00,VWS V15.00,2015-01-29 08:08:00,
2015-01-29 03:13:00,35.3,24.4,30.16,SSE,150,6.0,6.0,64,0.00,,FEW070,0.00,0.00,VWS V15.00,2015-01-29 08:13:00,
2015-01-29 03:18:00,35.2,24.6,30.16,SSE,158,9.0,9.0,65,0.00,,FEW070,0.00,0.00,VWS V15.00,2015-01-29 08:18:00,
2015-01-29 03:23:00,35.1,24.5,30.15,SE,132,3.0,6.0,65,0.00,,FEW070,0.00,0.00,VWS V15.00,2015-01-29 08:23:00,
2015-01-29 03:28:00,34.8,24.2,30.15,SSE,147,15.0,15.0,65,0.00,,FEW070,0.00,0.00,VWS V15.00,2015-01-29 08:28:00,
2015-01-29 03:34:00,34.8,24.6,30.15,ESE,117,3.0,6.0,66,0.00,,FEW070,0.00,0.00,VWS V15.00,2015-01-29 08:34:00,
2015-01-29 03:39:00,34.8,24.2,30.14,SE,125,3.0,6.0,65,0.00,,FEW070,0.00,0.00,VWS V15.00,2015-01-29 08:39:00,
2015-01-29 03:44:00,34.9,24.3,30.14,SSE,153,4.5,6.0,65,0.00,,FEW070,0.00,0.00,VWS V15.00,2015-01-29 08:44:00,
2015-01-29 03:49:00,34.8,24.2,30.14,SE,142,6.0,6.0,65,0.00,,FEW070,0.00,0.00,VWS V15.00,2015-01-29 08:49:00,
2015-01-29 03:54:00,34.7,24.1,30.14,South,184,9.0,9.0,65,0.00,,FEW070,0.00,0.00,VWS V15.00,2015-01-29 08:54:00,
2015-01-29 03:59:00,34.6,24.1,30.13,South,170,7.5,7.5,65,0.00,,FEW070,0.00,0.00,VWS V15.00,2015-01-29 08:59:00,
2015-01-29 04:04:00,34.7,24.1,30.13,SSE,159,10.5,10.5,65,0.00,,FEW070,0.00,0.00,VWS V15.00,2015-01-29 09:04:00,
2015-01-29 04:09:00,34.8,23.9,30.13,SSE,153,6.0,6.0,64,0.00,,FEW070,0.00,0.00,VWS V15.00,2015-01-29 09:09:00,
2015-01-29 04:14:00,35.0,24.1,30.12,SSE,154,12.0,12.0,64,0.00,,FEW070,0.00,0.00,VWS V15.00,2015-01-29 09:14:00,
2015-01-29 04:19:00,35.1,24.2,30.12,SSE,164,7.5,7.5,64,0.00,,FEW070,0.00,0.00,VWS V15.00,2015-01-29 09:19:00,
2015-01-29 04:24:00,35.2,24.3,30.11,South,178,10.5,10.5,64,0.00,,FEW070,0.00,0.00,VWS V15.00,2015-01-29 09:24:00,
2015-01-29 04:30:00,35.4,24.1,30.11,South,171,12.0,12.0,63,0.00,,FEW070,0.00,0.00,VWS V15.00,2015-01-29 09:30:00,
2015-01-29 04:35:00,35.6,24.3,30.10,East,88,3.0,6.0,63,0.00,,FEW070,0.00,0.00,VWS V15.00,2015-01-29 09:35:00,
2015-01-29 04:40:00,35.7,24.0,30.10,South,190,10.5,10.5,62,0.00,,FEW070,0.00,0.00,VWS V15.00,2015-01-29 09:40:00,
2015-01-29 04:45:00,35.9,24.2,30.09,SSW,194,9.0,9.0,62,0.00,,FEW070,0.00,0.00,VWS V15.00,2015-01-29 09:45:00,
2015-01-29 04:50:00,36.0,24.3,30.09,SSW,202,4.5,6.0,62,0.00,,FEW070,0.00,0.00,VWS V15.00,2015-01-29 09:50:00,
2015-01-29 04:55:00,36.2,24.1,30.08,SE,135,18.0,18.0,61,0.00,,FEW070,0.00,0.00,VWS V15.00,2015-01-29 09:55:00,
2015-01-29 05:00:00,36.7,24.1,30.08,South,174,9.0,9.0,60,0.00,,FEW070,0.00,0.00,VWS V15.00,2015-01-29 10:00:00,
2015-01-29 05:05:00,36.9,23.9,30.07,ESE,115,10.5,10.5,59,0.00,,FEW070,0.00,0.00,VWS V15.00,2015-01-29 10:05:00,
2015-01-29 05:10:00,37.0,24.0,30.07,SSE,149,15.0,15.0,59,0.00,,FEW070,0.00,0.00,VWS V15.00,2015-01-29 10:10:00,
2015-01-29 05:15:00,37.1,24.1,30.07,South,173,7.5,7.5,59,0.00,,FEW070,0.00,0.00,VWS V15.00,2015-01-29 10:15:00,
2015-01-29 05:21:00,37.1,24.1,30.07,ENE,71,12.0,12.0,59,0.00,,FEW070,0.00,0.00,VWS V15.00,2015-01-29 10:21:00,
2015-01-29 05:26:00,37.2,24.2,30.07,South,173,7.5,7.5,59,0.00,,FEW070,0.00,0.00,VWS V15.00,2015-01-29 10:26:00,
2015-01-29 05:31:00,37.3,24.3,30.07,SSE,167,9.0,9.0,59,0.00,,FEW070,0.00,0.00,VWS V15.00,2015-01-29 10:31:00,
2015-01-29 05:36:00,37.4,24.4,30.07,SSE,161,3.0,6.0,59,0.00,,FEW070,0.00,0.00,VWS V15.00,2015-01-29 10:36:00,
2015-01-29 05:41:00,37.4,24.8,30.06,SSE,165,7.5,7.5,60,0.00,,FEW070,0.00,0.00,VWS V15.00,2015-01-29 10:41:00,
2015-01-29 05:46:00,37.3,25.9,30.07,SE,134,4.5,6.0,63,0.00,,FEW070,0.00,0.00,VWS V15.00,2015-01-29 10:46:00,
2015-01-29 05:51:00,37.0,26.7,30.07,South,170,6.0,6.0,66,0.01,,FEW070,0.01,0.00,VWS V15.00,2015-01-29 10:51:00,
2015-01-29 05:56:00,36.5,27.0,30.06,SE,136,10.5,10.5,68,0.02,,FEW070,0.02,0.00,VWS V15.00,2015-01-29 10:56:00,
2015-01-29 06:01:00,36.2,27.7,30.05,South,176,4.5,6.0,71,0.03,,FEW070,0.03,0.00,VWS V15.00,2015-01-29 11:01:00,
2015-01-29 06:06:00,35.9,27.4,30.05,SE,137,7.5,7.5,71,0.04,,FEW070,0.04,0.00,VWS V15.00,2015-01-29 11:06:00,
2015-01-29 06:11:00,35.6,28.1,30.05,South,186,3.0,6.0,74,0.05,,FEW070,0.05,0.00,VWS V15.00,2015-01-29 11:11:00,
2015-01-29 06:17:00,35.3,28.5,30.05,SSE,157,0.0,6.0,76,0.06,,FEW070,0.06,0.00,VWS V15.00,2015-01-29 11:17:00,
2015-01-29 06:22:00,35.1,28.9,30.04,SSW,206,7.5,7.5,78,0.08,,FEW070,0.08,0.00,VWS V15.00,2015-01-29 11:22:00,
2015-01-29 06:27:00,34.8,29.0,30.03,South,169,6.0,6.0,79,0.08,,FEW070,0.08,0.00,VWS V15.00,2015-01-29 11:27:00,
2015-01-29 06:32:00,34.8,29.6,30.03,SSE,150,12.0,12.0,81,0.09,,FEW070,0.09,0.00,VWS V15.00,2015-01-29 11:32:00,
2015-01-29 06:37:00,34.7,29.8,30.02,South,180,12.0,12.0,82,0.09,,FEW070,0.09,0.00,VWS V15.00,2015-01-29 11:37:00,
2015-01-29 06:42:00,34.7,29.8,30.01,SE,144,7.5,7.5,82,0.10,,FEW070,0.10,0.00,VWS V15.00,2015-01-29 11:42:00,
2015-01-29 06:47:00,34.7,30.1,30.01,SSE,155,6.0,6.0,83,0.10,,FEW070,0.10,0.00,VWS V15.00,2015-01-29 11:47:00,
2015-01-29 06:52:00,34.7,30.1,30.00,SSE,147,12.0,12.0,83,0.10,,FEW070,0.10,0.00,VWS V15.00,2015-01-29 11:52:00,
2015-01-29 06:57:00,34.9,30.3,30.00,SE,141,4.5,6.0,83,0.10,,FEW070,0.10,0.00,VWS V15.00,2015-01-29 11:57:00,
2015-01-29 07:02:00,35.1,30.5,30.00,South,180,4.5,6.0,83,0.07,,FEW070,0.10,0.00,VWS V15.00,2015-01-29 12:02:00,
2015-01-29 07:07:00,35.2,30.6,30.00,South,184,16.5,16.5,83,0.07,,FEW070,0.10,0.00,VWS V15.00,2015-01-29 12:07:00,
2015-01-29 07:13:00,35.3,30.4,30.00,SSE,148,7.5,7.5,82,0.07,,FEW070,0.10,0.00,VWS V15.00,2015-01-29 12:13:00,
2015-01-29 07:18:00,35.4,30.5,29.99,SE,146,12.0,12.0,82,0.07,,FEW070,0.10,0.00,VWS V15.00,2015-01-29 12:18:00,
2015-01-29 07:23:00,35.5,30.6,30.00,South,182,7.5,7.5,82,0.07,,FEW070,0.10,0.00,VWS V15.00,2015-01-29 12:23:00,
2015-01-29 07:28:00,35.5,30.6,29.99,South,169,3.0,6.0,82,0.07,,FEW070,0.10,0.00,VWS V15.00,2015-01-29 12:28:00,
2015-01-29 07:33:00,35.7,30.8,30.00,SSE,160,6.0,6.0,82,0.01,,FEW070,0.10,0.00,VWS V15.00,2015-01-29 12:33:00,
2015-01-29 07:38:00,35.9,31.0,29.99,South,182,7.5,7.5,82,0.01,,FEW070,0.10,0.00,VWS V15.00,2015-01-29 12:38:00,
2015-01-29 07:43:00,36.0,31.0,29.98,SE,146,4.5,6.0,82,0.01,,FEW070,0.10,0.00,VWS V15.00,2015-01-29 12:43:00,
2015-01-29 07:48:00,36.1,31.1,29.98,South,183,7.5,7.5,82,0.01,,FEW070,0.10,0.00,VWS V15.00,2015-01-29 12:48:00,
2015-01-29 07:53:00,36.2,31.2,29.98,South,176,7.5,7.5,82,0.01,,FEW070,0.10,0.00,VWS V15.00,2015-01-29 12:53:00,
2015-01-29 07:59:00,36.3,31.3,29.98,SE,133,4.5,6.0,82,0.01,,FEW070,0.10,0.00,VWS V15.00,2015-01-29 12:59:00,
2015-01-29 08:04:00,36.5,31.5,29.98,SSW,193,4.5,6.0,82,0.00,,FEW070,0.10,0.00,VWS V15.00,2015-01-29 13:04:00,
2015-01-29 08:09:00,36.6,31.6,29.98,South,186,16.5,16.5,82,0.00,,FEW070,0.10,0.00,VWS V15.00,2015-01-29 13:09:00,
2015-01-29 08:14:00,36.7,31.7,29.98,SSW,210,7.5,7.5,82,0.00,,FEW070,0.10,0.00,VWS V15.00,2015-01-29 13:14:00,
2015-01-29 08:20:00,36.8,31.8,29.98,SSE,159,4.5,6.0,82,0.00,,FEW070,0.10,7.00,VWS V15.00,2015-01-29 13:20:00,
2015-01-29 08:25:00,36.8,31.8,29.98,South,191,4.5,6.0,82,0.00,,FEW070,0.10,7.00,VWS V15.00,2015-01-29 13:25:00,
2015-01-29 08:30:00,36.9,32.2,29.98,South,180,4.5,6.0,83,0.00,,FEW070,0.10,11.00,VWS V15.00,2015-01-29 13:30:00,
2015-01-29 08:35:00,36.9,32.2,29.98,South,170,9.0,9.0,83,0.00,,FEW070,0.10,14.00,VWS V15.00,2015-01-29 13:35:00,
2015-01-29 08:40:00,37.0,32.6,29.98,SE,146,6.0,6.0,84,0.00,,FEW070,0.10,11.00,VWS V15.00,2015-01-29 13:40:00,
2015-01-29 08:45:00,37.1,32.7,29.97,SSW,199,12.0,12.0,84,0.01,,FEW070,0.11,18.00,VWS V15.00,2015-01-29 13:45:00,
2015-01-29 08:50:00,37.2,32.8,29.98,WSW,254,6.0,6.0,84,0.01,,FEW070,0.11,16.00,VWS V15.00,2015-01-29 13:50:00,
2015-01-29 08:55:00,37.3,32.9,29.98,SW,227,12.0,12.0,84,0.01,,FEW070,0.11,14.00,VWS V15.00,2015-01-29 13:55:00,
2015-01-29 09:00:00,37.5,33.1,29.98,South,189,16.5,16.5,84,0.01,,FEW070,0.11,12.00,VWS V15.00,2015-01-29 14:00:00,
2015-01-29 09:06:00,37.6,33.5,29.98,WSW,238,7.5,7.5,85,0.01,,FEW070,0.11,35.00,VWS V15.00,2015-01-29 14:06:00,
2015-01-29 09:11:00,37.8,33.7,29.98,SSE,161,3.0,6.0,85,0.01,,FEW070,0.11,49.00,VWS V15.00,2015-01-29 14:11:00,
2015-01-29 09:16:00,38.1,34.0,29.97,SW,219,0.0,6.0,85,0.01,,FEW070,0.11,42.00,VWS V15.00,2015-01-29 14:16:00,
2015-01-29 09:21:00,38.3,34.2,29.97,South,190,7.5,7.5,85,0.01,,FEW070,0.11,35.00,VWS V15.00,2015-01-29 14:21:00,
2015-01-29 09:27:00,38.6,34.2,29.97,SSW,198,16.5,16.5,84,0.01,,FEW070,0.11,70.00,VWS V15.00,2015-01-29 14:27:00,
2015-01-29 09:32:00,38.9,34.5,29.97,SW,223,3.0,6.0,84,0.01,,FEW070,0.11,97.00,VWS V15.00,2015-01-29 14:32:00,
2015-01-29 09:37:00,39.3,34.9,29.96,South,175,6.0,6.0,84,0.01,,FEW070,0.11,188.00,VWS V15.00,2015-01-29 14:37:00,
2015-01-29 09:42:00,39.9,35.5,29.96,SSW,204,9.0,9.0,84,0.01,,FEW070,0.11,244.00,VWS V15.00,2015-01-29 14:42:00,
2015-01-29 09:47:00,40.7,36.0,29.96,SSW,206,7.5,7.5,83,0.01,,FEW070,0.11,262.00,VWS V15.00,2015-01-29 14:47:00,
2015-01-29 09:52:00,41.2,36.1,29.96,SSE,162,4.5,6.0,82,0.01,,FEW070,0.11,287.00,VWS V15.00,2015-01-29 14:52:00,
2015-01-29 09:57:00,41.7,36.3,29.96,SSW,208,7.5,7.5,81,0.01,,FEW070,0.11,192.00,VWS V15.00,2015-01-29 14:57:00,
2015-01-29 10:03:00,42.4,37.0,29.95,SSW,192,7.5,7.5,81,0.00,,FEW070,0.11,364.00,VWS V15.00,2015-01-29 15:03:00,
2015-01-29 10:08:00,42.7,36.7,29.95,WSW,240,3.0,6.0,79,0.00,,FEW070,0.11,111.00,VWS V15.00,2015-01-29 15:08:00,
2015-01-29 10:13:00,42.9,36.8,29.95,SSW,211,4.5,6.0,79,0.00,,FEW070,0.11,327.00,VWS V15.00,2015-01-29 15:13:00,
2015-01-29 10:18:00,43.6,37.2,29.95,SSW,192,6.0,6.0,78,0.00,,FEW070,0.11,315.00,VWS V15.00,2015-01-29 15:18:00,
2015-01-29 10:23:00,44.2,37.8,29.95,WSW,250,7.5,7.5,78,0.00,,FEW070,0.11,336.00,VWS V15.00,2015-01-29 15:23:00,
2015-01-29 10:28:00,44.7,37.9,29.94,SW,214,9.0,9.0,77,0.00,,FEW070,0.11,348.00,VWS V15.00,2015-01-29 15:28:00,
2015-01-29 10:34:00,45.2,38.1,29.95,SSW,208,9.0,9.0,76,0.00,,FEW070,0.11,359.00,VWS V15.00,2015-01-29 15:34:00,
2015-01-29 10:39:00,45.7,38.2,29.94,SSW,211,7.5,7.5,75,0.00,,FEW070,0.11,369.00,VWS V15.00,2015-01-29 15:39:00,
2015-01-29 10:44:00,46.1,38.3,29.94,SSW,200,13.5,13.5,74,0.00,,FEW070,0.11,385.00,VWS V15.00,2015-01-29 15:44:00,
2015-01-29 10:49:00,46.7,38.9,29.94,SW,221,13.5,13.5,74,0.00,,FEW070,0.11,411.00,VWS V15.00,2015-01-29 15:49:00,
2015-01-29 10:54:00,47.0,38.8,29.94,South,190,13.5,13.5,73,0.00,,FEW070,0.11,193.00,VWS V15.00,2015-01-29 15:54:00,
2015-01-29 11:00:00,46.9,39.1,29.94,WSW,239,9.0,9.0,74,0.00,,FEW070,0.11,213.00,VWS V15.00,2015-01-29 16:00:00,
2015-01-29 11:05:00,47.1,38.9,29.94,West,267,3.0,6.0,73,0.00,,FEW070,0.11,281.00,VWS V15.00,2015-01-29 16:05:00,
2015-01-29 11:10:00,47.5,39.3,29.94,SSW,207,15.0,15.0,73,0.00,,FEW070,0.11,325.00,VWS V15.00,2015-01-29 16:10:00,
2015-01-29 11:15:00,47.8,39.2,29.93,SSE,148,15.0,15.0,72,0.00,,FEW070,0.11,185.00,VWS V15.00,2015-01-29 16:15:00,
2015-01-29 11:20:00,48.0,39.4,29.93,South,170,9.0,9.0,72,0.00,,FEW070,0.11,128.00,VWS V15.00,2015-01-29 16:20:00,
2015-01-29 11:25:00,48.1,39.5,29.93,South,182,10.5,10.5,72,0.00,,FEW070,0.11,176.00,VWS V15.00,2015-01-29 16:25:00,
2015-01-29 11:30:00,48.2,39.6,29.93,SSW,205,1.5,6.0,72,0.00,,FEW070,0.11,141.00,VWS V15.00,2015-01-29 16:30:00,
2015-01-29 11:35:00,48.5,39.9,29.93,SW,234,6.0,6.0,72,0.00,,FEW070,0.11,167.00,VWS V15.00,2015-01-29 16:35:00,
2015-01-29 11:41:00,48.7,40.1,29.93,SSW,198,9.0,9.0,72,0.00,,FEW070,0.11,139.00,VWS V15.00,2015-01-29 16:41:00,
2015-01-29 11:46:00,48.8,40.2,29.93,SSW,213,10.5,10.5,72,0.00,,FEW070,0.11,98.00,VWS V15.00,2015-01-29 16:46:00,
2015-01-29 11:51:00,49.0,40.0,29.93,South,173,3.0,6.0,71,0.00,,FEW070,0.11,104.00,VWS V15.00,2015-01-29 16:51:00,
2015-01-29 11:56:00,49.0,40.0,29.92,South,188,16.5,16.5,71,0.00,,FEW070,0.11,98.00,VWS V15.00,2015-01-29 16:56:00,
2015-01-29 12:01:00,49.3,40.3,29.92,SW,232,7.5,7.5,71,0.00,,FEW070,0.11,91.00,VWS V15.00,2015-01-29 17:01:00,
2015-01-29 12:06:00,49.3,40.7,29.92,WSW,239,16.5,16.5,72,0.00,,FEW070,0.11,109.00,VWS V15.00,2015-01-29 17:06:00,
2015-01-29 12:12:00,49.5,40.5,29.92,WSW,244,6.0,6.0,71,0.00,,FEW070,0.11,113.00,VWS V15.00,2015-01-29 17:12:00,
2015-01-29 12:17:00,49.6,40.6,29.92,WSW,239,9.0,9.0,71,0.00,,FEW070,0.11,95.00,VWS V15.00,2015-01-29 17:17:00,
2015-01-29 12:22:00,49.6,40.6,29.92,South,187,6.0,6.0,71,0.00,,FEW070,0.11,81.00,VWS V15.00,2015-01-29 17:22:00,
2015-01-29 12:27:00,49.6,40.6,29.92,SSW,210,6.0,6.0,71,0.00,,FEW070,0.11,83.00,VWS V15.00,2015-01-29 17:27:00,
2015-01-29 12:32:00,49.6,41.0,29.91,WSW,245,4.5,6.0,72,0.00,,FEW070,0.11,76.00,VWS V15.00,2015-01-29 17:32:00,
2015-01-29 12:37:00,49.6,41.0,29.91,SW,224,4.5,6.0,72,0.00,,FEW070,0.11,74.00,VWS V15.00,2015-01-29 17:37:00,
2015-01-29 12:42:00,49.6,41.0,29.91,South,188,12.0,12.0,72,0.00,,FEW070,0.11,58.00,VWS V15.00,2015-01-29 17:42:00,
2015-01-29 12:47:00,49.5,40.9,29.91,SSW,213,9.0,9.0,72,0.00,,FEW070,0.11,58.00,VWS V15.00,2015-01-29 17:47:00,
2015-01-29 12:52:00,49.4,40.8,29.91,SW,225,3.0,6.0,72,0.00,,FEW070,0.11,62.00,VWS V15.00,2015-01-29 17:52:00,
2015-01-29 12:57:00,49.4,41.1,29.91,WNW,288,9.0,9.0,73,0.00,,FEW070,0.11,49.00,VWS V15.00,2015-01-29 17:57:00,
2015-01-29 13:02:00,49.5,41.2,29.91,NW,306,9.0,9.0,73,0.00,,FEW070,0.11,40.00,VWS V15.00,2015-01-29 18:02:00,
2015-01-29 13:03:00,49.4,41.1,29.91,WSW,243,4.5,6.0,73,0.00,,FEW070,0.11,46.00,VWS V15.00,2015-01-29 18:03:00,
2015-01-29 13:07:00,49.5,41.2,29.90,WSW,253,7.5,7.5,73,0.00,,FEW070,0.11,39.00,VWS V15.00,2015-01-29 18:07:00,
2015-01-29 13:12:00,49.4,41.1,29.90,SSW,213,10.5,10.5,73,0.00,,FEW070,0.11,32.00,VWS V15.00,2015-01-29 18:12:00,
2015-01-29 13:17:00,49.4,41.1,29.91,SSW,210,6.0,6.0,73,0.00,,FEW070,0.11,28.00,VWS V15.00,2015-01-29 18:17:00,
2015-01-29 13:22:00,49.3,41.4,29.91,WSW,240,10.5,10.5,74,0.00,,FEW070,0.11,25.00,VWS V15.00,2015-01-29 18:22:00,
2015-01-29 13:27:00,49.3,41.4,29.91,WSW,247,9.0,9.0,74,0.00,,FEW070,0.11,19.00,VWS V15.00,2015-01-29 18:27:00,
2015-01-29 13:33:00,49.2,41.3,29.92,WNW,298,9.0,9.0,74,0.00,,FEW070,0.11,19.00,VWS V15.00,2015-01-29 18:33:00,
2015-01-29 13:38:00,49.0,41.4,29.92,West,272,7.5,7.5,75,0.00,,FEW070,0.11,42.00,VWS V15.00,2015-01-29 18:38:00,
2015-01-29 13:43:00,48.8,41.2,29.91,SW,214,7.5,7.5,75,0.00,,FEW070,0.11,111.00,VWS V15.00,2015-01-29 18:43:00,
2015-01-29 13:48:00,48.9,41.3,29.91,WSW,254,7.5,7.5,75,0.00,,FEW070,0.11,104.00,VWS V15.00,2015-01-29 18:48:00,
2015-01-29 13:53:00,48.9,41.3,29.92,SW,230,19.5,19.5,75,0.00,,FEW070,0.11,90.00,VWS V15.00,2015-01-29 18:53:00,
2015-01-29 13:58:00,48.8,40.9,29.92,West,263,6.0,6.0,74,0.00,,FEW070,0.11,53.00,VWS V15.00,2015-01-29 18:58:00,
2015-01-29 14:03:00,48.6,40.7,29.92,SW,231,12.0,12.0,74,0.00,,FEW070,0.11,30.00,VWS V15.00,2015-01-29 19:03:00,
2015-01-29 14:08:00,48.2,40.3,29.93,WSW,248,10.5,10.5,74,0.00,,FEW070,0.11,30.00,VWS V15.00,2015-01-29 19:08:00,
2015-01-29 14:13:00,47.7,40.2,29.93,WSW,245,6.0,6.0,75,0.00,,FEW070,0.11,26.00,VWS V15.00,2015-01-29 19:13:00,
2015-01-29 14:18:00,47.3,40.1,29.93,West,261,9.0,9.0,76,0.00,,FEW070,0.11,23.00,VWS V15.00,2015-01-29 19:18:00,
2015-01-29 14:23:00,47.0,40.2,29.94,WSW,257,19.5,19.5,77,0.00,,FEW070,0.11,21.00,VWS V15.00,2015-01-29 19:23:00,
2015-01-29 14:28:00,46.7,40.2,29.94,WSW,242,7.5,7.5,78,0.00,,FEW070,0.11,16.00,VWS V15.00,2015-01-29 19:28:00,
2015-01-29 14:34:00,46.3,39.8,29.95,WNW,288,3.0,6.0,78,0.00,,FEW070,0.11,16.00,VWS V15.00,2015-01-29 19:34:00,
2015-01-29 14:39:00,45.8,39.7,29.95,WNW,289,3.0,6.0,79,0.00,,FEW070,0.11,19.00,VWS V15.00,2015-01-29 19:39:00,
2015-01-29 14:44:00,45.0,39.2,29.96,West,267,12.0,12.0,80,0.00,,FEW070,0.11,23.00,VWS V15.00,2015-01-29 19:44:00,
2015-01-29 14:49:00,44.4,38.9,29.96,West,279,10.5,10.5,81,0.00,,FEW070,0.11,23.00,VWS V15.00,2015-01-29 19:49:00,
2015-01-29 14:54:00,44.0,38.9,29.97,WSW,253,12.0,12.0,82,0.00,,FEW070,0.11,32.00,VWS V15.00,2015-01-29 19:54:00,
2015-01-29 14:59:00,43.6,38.2,29.97,WSW,240,15.0,15.0,81,0.00,,FEW070,0.11,28.00,VWS V15.00,2015-01-29 19:59:00,
2015-01-29 15:04:00,43.0,37.9,29.98,WNW,285,4.5,6.0,82,0.00,,FEW070,0.11,23.00,VWS V15.00,2015-01-29 20:04:00,
2015-01-29 15:09:00,42.6,37.5,29.98,West,273,7.5,7.5,82,0.00,,FEW070,0.11,37.00,VWS V15.00,2015-01-29 20:09:00,
2015-01-29 15:14:00,42.3,37.2,29.98,WNW,299,9.0,9.0,82,0.00,,FEW070,0.11,32.00,VWS V15.00,2015-01-29 20:14:00,
2015-01-29 15:20:00,41.9,36.8,29.99,West,277,7.5,7.5,82,0.00,,FEW070,0.11,25.00,VWS V15.00,2015-01-29 20:20:00,
2015-01-29 15:25:00,41.6,36.5,30.00,WNW,292,9.0,9.0,82,0.00,,FEW070,0.11,21.00,VWS V15.00,2015-01-29 20:25:00,
2015-01-29 15:30:00,41.2,36.1,30.00,West,281,6.0,6.0,82,0.00,,FEW070,0.11,21.00,VWS V15.00,2015-01-29 20:30:00,
2015-01-29 15:35:00,40.9,36.1,30.01,WNW,294,6.0,6.0,83,0.00,,FEW070,0.11,19.00,VWS V15.00,2015-01-29 20:35:00,
2015-01-29 15:40:00,40.5,35.8,30.01,West,271,6.0,6.0,83,0.00,,FEW070,0.11,18.00,VWS V15.00,2015-01-29 20:40:00,